Flag for Netherlands Weather past 2 weeks in Kralendijk, Bonaire, Netherlands

Now
88 °F

Warm.


Feels Like: 100 °F
Forecast: 80 / 86 °F
Wind: 18 mph from East

Location: Flamingo Airport - Bonaire

Current Time: May 28, 2015 at 2:26:14 PM

Latest Report: May 28, 2015 at 1:00 PM


Visibility: N/A

Pressure: 29.89 "Hg

Humidity: 70%

Dew point: 77 °F

Location of KralendijkLocation

Historic Weather in Kralendijk — Graph

°F

Kralendijk temperature yesterday

Maximum temperature yesterday: 88 °F (at 1:00 PM)
Minimum temperature yesterday: 79 °F (at 1:00 AM)
Average temperature yesterday: 82 °F

Past Weeks' High & Low Weather Summary

 TemperatureHumidityPressure
High88 °F (May 20, 1:00 PM)89% (May 18, 2:00 AM)30.04 "Hg (May 18, 2:00 AM)
Low79 °F (May 14, 1:00 AM)62% (May 27, 1:00 PM)29.83 "Hg (May 20, 5:00 PM)
Average82 °F77%29.93 "Hg
* Reported May 13 1:00 PM — May 28 1:00 PM, Kralendijk, Weather by CustomWeather, © 2015

Note: Actual official high and low records may vary slightly from our data, if they occured in-between our weather recording intervals... More about our weather records

Advertising

Kralendijk weather history for previous 24 hours

 ConditionsComfort  
Time TempWeatherWind HumidityBarometerVisibility
1:00 PM
Thu, May 28
88 °FWarm.18 mph70%29.89 "HgN/A
12:00 PM86 °FPartly sunny.18 mph75%29.89 "HgN/A
11:00 AM86 °FPartly sunny.17 mph75%29.92 "HgN/A
10:00 AM84 °FWarm.18 mph74%29.92 "HgN/A
9:00 AM82 °FScattered clouds.18 mph79%29.89 "HgN/A
8:00 AM82 °FWarm.17 mph79%29.89 "HgN/A
7:00 AM81 °FWarm.14 mph79%29.89 "HgN/A
6:00 AM81 °FWarm.15 mph79%29.86 "HgN/A
5:00 AM81 °FWarm.15 mph74%29.86 "HgN/A
4:00 AM81 °FWarm.15 mph79%29.86 "HgN/A
3:00 AM79 °FWarm.14 mph84%29.86 "HgN/A
2:00 AM79 °FWarm.15 mph79%29.86 "HgN/A
1:00 AM81 °FWarm.14 mph74%29.89 "HgN/A
12:00 AM81 °FWarm.16 mph74%29.89 "HgN/A
11:00 PM
Wed, May 27
81 °FWarm.17 mph74%29.89 "HgN/A
10:00 PM81 °FWarm.20 mph74%29.89 "HgN/A
9:00 PM81 °FWarm.17 mph74%29.86 "HgN/A
8:00 PM81 °FPassing clouds.17 mph74%29.86 "HgN/A
7:00 PM81 °FPassing clouds.20 mph70%29.83 "HgN/A
5:00 PM84 °FPassing clouds.17 mph66%29.83 "HgN/A
4:00 PM84 °FWarm.17 mph66%29.86 "HgN/A
3:00 PM86 °FScattered clouds.17 mph66%29.86 "HgN/A
2:00 PM86 °FWarm.15 mph66%29.89 "HgN/A
Weather by CustomWeather, © 2015

See weather overviewHow to use our weather pages